Weather Roundup
Issued by NWS Chicago, IL

Home | Current Version | Previous Version | Text Only | Print | Product List | Glossary Off
Versions: 1 2 3 4 5 6 7 8 9 10 11 12 13 14 15 16 17 18 19 20 21 22 23 24 25 26 27 28 29 30 31 32 33 34 35 36 37 38 39 40 41 42 43 44 45 46 47 48 49 50

756
NZUS59 KLOT 162109
HRRLOT

CHICAGO AREA WEATHER ROUNDUP
NATIONAL WEATHER SERVICE CHICAGO/ROMEOVILLE IL
400 PM CDT MON OCT 16 2017

NOTE: "FAIR" INDICATES FEW OR NO CLOUDS BELOW 12,000 FEET WITH NO
SIGNIFICANT WEATHER AND/OR OBSTRUCTIONS TO VISIBILITY.

* THESE STATIONS ARE NOT UNDER NWS QUALITY CONTROL. THEY ALSO MAY NOT
  REPORT WEATHER SUCH AS PRECIPITATION OR FOG.

ILZ005-006-012>014-019>023-162200-
NORTHEAST ILLINOIS

CITY           SKY/WX    TMP DP  RH WIND       PRES   REMARKS
OHARE          MOSUNNY   62  34  35 W13       30.22F
MIDWAY         MOSUNNY   63  38  39 W15       30.24F
AURORA         SUNNY     62  35  36 W10       30.24F
LANSING*       SUNNY     62  40  44 W13       30.25S
JOLIET*        SUNNY     64  35  34 W7        30.25S
WAUKEGAN       SUNNY     62  37  39 SW9       30.21F
DUPAGE AIRPORT SUNNY     62  36  37 W14       30.23F
WHEELING       SUNNY     63  35  35 W8        30.23F
KANKAKEE*      SUNNY     64  35  34 W14G21    30.27S
MORRIS*        SUNNY     63  37  36 W8        30.24S
LEWIS AIRPORT* SUNNY     63  37  37 W8        30.24F
NORTHERLY ISL    N/A     62  33  33 SW9         N/A
$$

WIZ051-052-058>065-066-070>072-162200-
SOUTHEAST WISCONSIN

CITY           SKY/WX    TMP DP  RH WIND       PRES   REMARKS
MILWAUKEE      MOSUNNY   62  32  32 SW14      30.20F
KENOSHA*       SUNNY     61  34  36 W12       30.21F
RACINE*        SUNNY     62  35  36 SW8G16    30.22F
BURLINGTON     SUNNY     61  36  39 W10G20    30.20F
WAUKESHA       SUNNY     57  34  41 SW7       30.20F
WEST BEND      SUNNY     59  32  36 W13       30.19F
$$

INZ001>003-010>013-019-020-162200-
NORTHWEST INDIANA

CITY           SKY/WX    TMP DP  RH WIND       PRES   REMARKS
GARY*          MOSUNNY   63  32  31 W14       30.25F
MICHIGAN CITY* NOT AVBL
RENSSELAER*    NOT AVBL
VALPARAISO     PTSUNNY   63  37  38 W9G18     30.25F
$$

LMZ740>746-162200-
SOUTHERN LAKE MICHIGAN

STATION/POSITION TIME  SKY/WX   TEMP WIND        PRES    VSBY
                                AIR  DIR/SP/G
                 (UTC)          (F)  (DEG/KT/KT) (MB)    (MI)
HARRISON CRIB    2040            62  250/ 14/ 17   N/A
BURNHAM HARBOR   2100            62  250/  7/ 11   N/A
CALUMET HARBOR   2048            62  250/  5/  9 1023.2F
BURNS HARBOR     2040            60  270/  7/  9 1024.7F
MICHIGAN CITY    2040            59  260/  4/  4   N/A
$$

ABBREVIATIONS USED IN REMARKS
   TC - TEMPERATURE IN CELSIUS
  WCI - WIND CHILL INDEX
   HX - HEAT INDEX
  VSB - VISIBILITY
$$




USA.gov is the U.S. government's official web portal to all federal, state and local government web resources and services.